Showing default

VSP ROSE, 59124

Orbit data source: Space-Track

VSP ROSE, 59124 is a payload satellite owned by Aerospacelab (BE) in SSO that was launched on Mon, 04 Mar 2024 UTC via an FALCON 9 launch vehicle from the Air Force Western Test Range (AFWTR). Payload-class satellites include a variety of spacecraft equipped with specific instruments for various scientific and technological missions. These include communications satellites like Starlink; space stations such as the ISS; scientific satellites like the Hubble; Earth observation satellites from companies like Planet Labs, Umbra, and HawkEye 360; GPS; miniature CubeSats for education and research; and military/defense satellites.

Loading next visibility...
Identifier
59124, 2024-043AC
Orbit
SSO
Country
Flag of BEBE / BEL
Related business
Manufacturer
Aerospacelab
Mission
Operational Commercial Imaging
Bus & Motor
AEROSP, Unknown motor
Mass
~200 kg wet, ~200 kg dry
Launch date (UTC)
2024-03-04 (2 years ago)
Launch vehicle
FALCON 9
Launch site
Air Force Western Test Range (AFWTR)
Object type
Payload
Rocket body
Debris
Shape & HBR
Box + 2 Pan, 1.0 m
Radar Cross Section
0.963 m², Large (>1 m²)

Expand to show TLE details & history
Last TLE update: 9 hours ago

TLE from 9 hours ago
0 VSP ROSE
1 59124U 24043AC  26235.64309427  .00003586  00000-0  12865-3 0  9994
2 59124  97.5699  13.1482 0010627  17.3678 342.7923 15.29336766137295
Epoch: 2026-08-23T15:26Z
TLE epoch observation values (Epoch: 2026-08-23T15:26:03.344Z)
Latitude
-0.00007°
Longitude
169.69807°
Altitude
473.931 km
Speed
7.633 km/s
True Right ascension
00h 52m 35s
True Declination
0° 00' 00"
Sunlit
Object was in full shadow at epoch
Visualization orbit readout
Latitude
Unknown
Longitude
Unknown
Altitude
Unknown
Speed
Unknown
Apparent Right ascension
Unknown
Apparent Declination
Unknown
Sunlit
N/A
Visualization observer readout
Local Sidereal Time
15:53:06
Azimuth
Unknown
Elevation
Unknown
Doppler factor
Unknown
Orbital elements
Apogee altitude
482.037 km
Perigee altitude
467.472 km
Semi-major axis
6,852.891 km
Eccentricity
0.00106
Inclination
97.5699°
RAAN
13.1482°
Arg. of periapsis
17.3678°
True anomaly
342.75623°
Mean anomaly
342.7923°
Eccentric anomaly
342.77427°
Mean motion
3.82589 °/min
Orbital period
94.1 mins
BSTAR
0.00012865
Loading maneuver chart data...
Computing Atmospheric mass density...

Documentation

Showing up to 5 results
|